TimeCST,TemperatureF,Dew PointF,Humidity,Sea Level PressureIn,VisibilityMPH,Wind Direction,Wind SpeedMPH,Gust SpeedMPH,PrecipitationIn,Events,Conditions,WindDirDegrees,DateUTC
12:15 AM,30.2,24.8,80,30.30,10.0,SW,15.0,19.6,N/A,,Mostly Cloudy,230,2013-11-30 06:15:00
12:35 AM,30.2,24.8,80,30.29,10.0,SSW,13.8,20.7,N/A,,Scattered Clouds,210,2013-11-30 06:35:00
12:55 AM,32.0,23.0,69,30.29,10.0,SW,12.7,24.2,N/A,,Mostly Cloudy,220,2013-11-30 06:55:00
1:15 AM,32.0,23.0,69,30.28,10.0,SW,12.7,19.6,N/A,,Overcast,220,2013-11-30 07:15:00
1:35 AM,32.0,24.8,75,30.28,10.0,SSW,10.4,-,N/A,,Overcast,210,2013-11-30 07:35:00
1:55 AM,32.0,23.0,69,30.27,10.0,SW,12.7,17.3,N/A,,Overcast,220,2013-11-30 07:55:00
2:15 AM,32.0,23.0,69,30.26,10.0,SSW,10.4,20.7,N/A,,Overcast,210,2013-11-30 08:15:00
2:35 AM,32.0,23.0,69,30.25,10.0,SSW,12.7,18.4,N/A,,Overcast,210,2013-11-30 08:35:00
2:55 AM,32.0,23.0,69,30.23,10.0,SSW,13.8,20.7,N/A,,Overcast,210,2013-11-30 08:55:00
3:15 AM,32.0,23.0,69,30.22,10.0,SSW,12.7,20.7,N/A,,Overcast,210,2013-11-30 09:15:00
3:35 AM,32.0,21.2,64,30.21,10.0,SSW,13.8,17.3,N/A,,Overcast,210,2013-11-30 09:35:00
3:55 AM,32.0,21.2,64,30.20,10.0,SW,12.7,23.0,N/A,,Overcast,220,2013-11-30 09:55:00
4:15 AM,32.0,21.2,64,30.19,10.0,SSW,15.0,-,N/A,,Mostly Cloudy,210,2013-11-30 10:15:00
4:35 AM,32.0,21.2,64,30.18,10.0,SSW,9.2,-,N/A,,Mostly Cloudy,210,2013-11-30 10:35:00
4:55 AM,32.0,23.0,69,30.17,10.0,SW,15.0,18.4,N/A,,Overcast,220,2013-11-30 10:55:00
5:15 AM,32.0,23.0,69,30.17,10.0,SW,8.1,-,N/A,,Overcast,220,2013-11-30 11:15:00
5:35 AM,32.0,24.8,75,30.15,10.0,SW,12.7,-,N/A,,Overcast,220,2013-11-30 11:35:00
5:55 AM,32.0,24.8,75,30.15,10.0,SW,11.5,-,N/A,,Overcast,220,2013-11-30 11:55:00
6:15 AM,32.0,24.8,75,30.14,10.0,SW,12.7,19.6,N/A,,Overcast,230,2013-11-30 12:15:00
6:35 AM,32.0,24.8,75,30.14,10.0,SW,11.5,-,N/A,,Overcast,230,2013-11-30 12:35:00
6:55 AM,32.0,24.8,75,30.13,10.0,SW,11.5,-,N/A,,Overcast,230,2013-11-30 12:55:00
7:15 AM,32.0,21.2,64,30.13,8.0,SW,6.9,-,N/A,,Overcast,220,2013-11-30 13:15:00
7:35 AM,30.2,24.8,80,30.12,8.0,SW,9.2,-,N/A,,Overcast,230,2013-11-30 13:35:00
7:55 AM,32.0,24.8,75,30.12,8.0,WSW,3.5,-,N/A,,Overcast,240,2013-11-30 13:55:00
8:15 AM,32.0,24.8,75,30.11,8.0,SW,5.8,-,N/A,,Mostly Cloudy,230,2013-11-30 14:15:00
8:35 AM,32.0,24.8,75,30.10,9.0,SW,6.9,-,N/A,,Overcast,230,2013-11-30 14:35:00
8:55 AM,33.8,24.8,70,30.10,9.0,SW,8.1,-,N/A,,Overcast,230,2013-11-30 14:55:00
9:15 AM,33.8,24.8,70,30.10,8.0,SW,6.9,-,N/A,,Scattered Clouds,230,2013-11-30 15:15:00
9:35 AM,33.8,24.8,70,30.10,9.0,SW,8.1,-,N/A,,Mostly Cloudy,230,2013-11-30 15:35:00
9:55 AM,33.8,24.8,70,30.09,9.0,WSW,6.9,-,N/A,,Partly Cloudy,240,2013-11-30 15:55:00
10:15 AM,35.6,24.8,65,30.08,9.0,WSW,5.8,-,N/A,,Clear,250,2013-11-30 16:15:00
10:35 AM,35.6,24.8,65,30.07,9.0,SW,8.1,-,N/A,,Scattered Clouds,230,2013-11-30 16:35:00
10:55 AM,35.6,26.6,70,30.06,9.0,WSW,6.9,-,N/A,,Overcast,240,2013-11-30 16:55:00
11:15 AM,35.6,24.8,65,30.05,10.0,WSW,5.8,-,N/A,,Overcast,240,2013-11-30 17:15:00
11:35 AM,35.6,24.8,65,30.04,10.0,WSW,4.6,-,N/A,,Overcast,250,2013-11-30 17:35:00
11:55 AM,35.6,24.8,65,30.04,10.0,SW,6.9,-,N/A,,Overcast,230,2013-11-30 17:55:00
12:15 PM,35.6,24.8,65,30.03,10.0,WSW,4.6,-,N/A,,Overcast,250,2013-11-30 18:15:00
12:35 PM,35.6,24.8,65,30.02,10.0,SW,5.8,-,N/A,,Overcast,220,2013-11-30 18:35:00
12:55 PM,35.6,26.6,70,30.01,9.0,SSW,5.8,-,N/A,,Overcast,200,2013-11-30 18:55:00
1:15 PM,35.6,26.6,70,30.01,9.0,SSW,4.6,-,N/A,,Overcast,200,2013-11-30 19:15:00
1:35 PM,35.6,26.6,70,30.00,9.0,South,6.9,-,N/A,,Overcast,190,2013-11-30 19:35:00
1:55 PM,35.6,28.4,75,30.01,9.0,SSW,5.8,-,N/A,,Mostly Cloudy,210,2013-11-30 19:55:00
2:15 PM,35.6,26.6,70,30.00,9.0,South,4.6,-,N/A,,Mostly Cloudy,190,2013-11-30 20:15:00
2:35 PM,35.6,26.6,70,30.00,9.0,SSW,4.6,-,N/A,,Mostly Cloudy,200,2013-11-30 20:35:00
2:55 PM,35.6,26.6,70,30.01,8.0,South,3.5,-,N/A,,Mostly Cloudy,180,2013-11-30 20:55:00
3:15 PM,35.6,26.6,70,30.01,9.0,South,3.5,-,N/A,,Scattered Clouds,190,2013-11-30 21:15:00
3:35 PM,35.6,26.6,70,30.01,8.0,Calm,Calm,-,N/A,,Partly Cloudy,0,2013-11-30 21:35:00
3:55 PM,35.6,26.6,70,30.01,8.0,Calm,Calm,-,N/A,,Clear,0,2013-11-30 21:55:00
4:15 PM,33.8,26.6,75,30.01,8.0,Calm,Calm,-,N/A,,Clear,0,2013-11-30 22:15:00
4:35 PM,33.8,26.6,75,30.02,6.0,North,3.5,-,N/A,,Clear,10,2013-11-30 22:35:00
4:55 PM,32.0,24.8,75,30.02,10.0,North,3.5,-,N/A,,Clear,10,2013-11-30 22:55:00
5:15 PM,30.2,24.8,80,30.02,8.0,Calm,Calm,-,N/A,,Clear,0,2013-11-30 23:15:00
5:35 PM,30.2,24.8,80,30.03,8.0,North,3.5,-,N/A,,Mostly Cloudy,10,2013-11-30 23:35:00
5:55 PM,32.0,24.8,75,30.04,10.0,NNE,4.6,-,N/A,,Overcast,20,2013-11-30 23:55:00
6:15 PM,33.8,24.8,70,30.05,10.0,NNE,3.5,-,N/A,,Overcast,20,2013-12-01 00:15:00
6:35 PM,32.0,24.8,75,30.05,10.0,North,3.5,-,N/A,,Overcast,10,2013-12-01 00:35:00
6:55 PM,32.0,24.8,75,30.05,10.0,North,3.5,-,N/A,,Overcast,10,2013-12-01 00:55:00
7:15 PM,32.0,24.8,75,30.05,10.0,NNE,5.8,-,N/A,,Overcast,20,2013-12-01 01:15:00
7:35 PM,32.0,24.8,75,30.06,10.0,NNE,5.8,-,N/A,,Mostly Cloudy,20,2013-12-01 01:35:00
7:55 PM,32.0,24.8,75,30.05,10.0,North,3.5,-,N/A,,Mostly Cloudy,10,2013-12-01 01:55:00
8:15 PM,32.0,24.8,75,30.05,10.0,North,3.5,-,N/A,,Overcast,10,2013-12-01 02:15:00
8:35 PM,32.0,24.8,75,30.06,10.0,North,3.5,-,N/A,,Overcast,350,2013-12-01 02:35:00
8:55 PM,32.0,24.8,75,30.06,10.0,Calm,Calm,-,N/A,,Overcast,0,2013-12-01 02:55:00
9:15 PM,32.0,24.8,75,30.06,10.0,Calm,Calm,-,N/A,,Overcast,0,2013-12-01 03:15:00
9:35 PM,32.0,24.8,75,30.06,10.0,NE,3.5,-,N/A,,Overcast,40,2013-12-01 03:35:00
9:55 PM,32.0,24.8,75,30.05,10.0,NNE,4.6,-,N/A,,Overcast,20,2013-12-01 03:55:00
10:15 PM,32.0,23.0,69,30.06,10.0,NNE,3.5,-,N/A,,Overcast,30,2013-12-01 04:15:00
10:35 PM,32.0,24.8,75,30.06,10.0,NNE,4.6,-,N/A,,Overcast,20,2013-12-01 04:35:00
10:55 PM,32.0,24.8,75,30.06,10.0,NNE,4.6,-,N/A,,Overcast,30,2013-12-01 04:55:00
11:15 PM,32.0,24.8,75,30.06,10.0,North,3.5,-,N/A,,Overcast,10,2013-12-01 05:15:00
11:35 PM,32.0,24.8,75,30.06,10.0,Calm,Calm,-,N/A,,Overcast,0,2013-12-01 05:35:00
11:55 PM,30.2,23.0,75,30.06,10.0,North,3.5,-,N/A,,Overcast,10,2013-12-01 05:55:00